EW7239 Weather Reports


Display with metric or nautical units.
time (UTC)temp
F
wind
direction
speed
MPH
gust
MPH
rain 1hr
in
rain 24hr
in
rain mn
in
humidity
%
barometer
mb
20260505194135 67 250 6.0 12.0 0.00 0.15 0.15 51 1014.9
20260505193906 67 222 6.0 12.0 0.00 0.15 0.15 50 1014.9
20260505193136 67 211 6.0 11.0 0.00 0.15 0.15 49 1014.9
20260505192635 67 222 7.0 11.0 0.00 0.15 0.15 49 1014.9
20260505192135 67 223 6.0 12.0 0.00 0.15 0.15 51 1015.0
20260505191635 66 210 6.0 12.0 0.00 0.15 0.15 52 1015.0
20260505191135 66 232 4.0 12.0 0.00 0.15 0.15 51 1015.1
20260505190632 66 221 4.0 12.0 0.00 0.15 0.15 51 1015.0
20260505190132 66 219 6.0 13.0 0.00 0.15 0.15 51 1015.1
20260505185633 66 216 6.0 13.0 0.00 0.15 0.15 51 1015.1
20260505185133 66 238 4.0 11.0 0.00 0.15 0.15 52 1015.1
20260505184128 65 210 6.0 11.0 0.00 0.15 0.15 53 1015.1
20260505183627 65 223 5.0 12.0 0.00 0.15 0.15 52 1015.2
20260505183127 66 209 4.0 12.0 0.00 0.15 0.15 52 1015.1
20260505182858 66 235 4.0 9.0 0.00 0.15 0.15 54 1015.2
20260505182125 66 234 3.0 10.0 0.00 0.15 0.15 54 1015.2
20260505181619 65 215 4.0 10.0 0.00 0.15 0.15 58 1015.2
20260505181116 64 212 5.0 9.0 0.00 0.15 0.15 58 1015.2
20260505180617 64 218 6.0 11.0 0.00 0.15 0.15 57 1015.2
20260505180112 64 221 5.0 11.0 0.00 0.15 0.15 60 1015.2
20260505175609 63 209 5.0 10.0 0.00 0.15 0.15 60 1015.1
20260505175109 63 200 5.0 10.0 0.00 0.15 0.15 60 1015.1
20260505174604 64 198 5.0 9.0 0.00 0.15 0.15 60 1015.0
20260505174332 63 216 5.0 10.0 0.00 0.15 0.15 62 1015.0
20260505173601 62 223 6.0 12.0 0.00 0.15 0.15 63 1014.9
20260505173057 62 219 6.0 12.0 0.00 0.15 0.15 63 1014.9
20260505172556 62 209 6.0 11.0 0.00 0.15 0.15 64 1014.9
20260505172057 63 209 6.0 11.0 0.00 0.15 0.15 64 1014.8
20260505171555 63 250 6.0 10.0 0.00 0.15 0.15 64 1014.8
20260505171054 62 229 5.0 9.0 0.00 0.15 0.15 66 1014.8
20260505170551 62 194 5.0 10.0 0.00 0.15 0.15 67 1014.8
20260505170052 62 209 6.0 11.0 0.00 0.15 0.15 68 1014.7
20260505165550 61 223 5.0 12.0 0.00 0.15 0.15 71 1014.8
20260505165323 60 223 4.0 12.0 0.00 0.15 0.15 71 1014.8
20260505164551 60 216 4.0 9.0 0.00 0.15 0.15 73 1014.7
20260505164049 60 211 5.0 9.0 0.00 0.15 0.15 74 1014.7
20260505163549 60 214 5.0 9.0 0.00 0.15 0.15 75 1014.7
20260505163049 59 202 5.0 9.0 0.00 0.15 0.15 78 1014.6
20260505162547 58 209 5.0 9.0 0.00 0.15 0.15 80 1014.6
20260505162044 58 204 5.0 9.0 0.00 0.15 0.15 81 1014.6
20260505161545 58 223 5.0 11.0 0.00 0.15 0.15 82 1014.6
20260505161042 57 223 5.0 11.0 0.00 0.15 0.15 83 1014.6
20260505160540 57 217 5.0 9.0 0.00 0.15 0.15 84 1014.4
20260505153036 55 214 6.0 10.0 0.00 0.15 0.15 85 1014.3
20260505152537 55 224 5.0 9.0 0.00 0.15 0.15 84 1014.3
20260505152034 55 218 6.0 9.0 0.00 0.15 0.15 83 1014.2
20260505151535 55 213 6.0 10.0 0.00 0.15 0.15 83 1014.1
20260505151034 55 210 6.0 10.0 0.00 0.15 0.15 82 1014.0
20260505150807 55 209 5.0 9.0 0.00 0.15 0.15 81 1014.0
20260505140535 54 226 3.0 5.0 0.00 0.15 0.15 81 1013.8
20260505125018 54 226 3.0 5.0 0.00 0.15 0.15 83 1013.5
20260505124516 54 226 2.0 5.0 0.00 0.15 0.15 83 1013.6
20260505123517 54 226 3.0 5.0 0.01 0.15 0.15 84 1013.5
20260505123017 54 226 3.0 4.0 0.01 0.15 0.15 84 1013.6
20260505122517 54 226 3.0 6.0 0.01 0.15 0.15 84 1013.5
20260505122017 54 226 4.0 6.0 0.02 0.15 0.15 84 1013.5
20260505121746 54 225 4.0 7.0 0.02 0.15 0.15 84 1013.5
20260505121016 54 225 4.0 7.0 0.03 0.15 0.15 85 1013.6
20260505120748 54 225 3.0 6.0 0.04 0.15 0.15 85 1013.6
20260505115518 54 225 3.0 6.0 0.07 0.15 0.15 85 1013.6
20260505115249 54 225 3.0 6.0 0.10 0.15 0.15 85 1013.6
20260505114517 54 225 3.0 5.0 0.11 0.15 0.15 85 1013.6
20260505114016 55 225 3.0 6.0 0.12 0.14 0.14 85 1013.7
20260505113517 55 225 3.0 6.0 0.12 0.14 0.14 86 1013.7
20260505113243 55 225 3.0 5.0 0.12 0.14 0.14 86 1013.7
20260505112511 55 225 2.0 5.0 0.13 0.14 0.14 86 1013.7
20260505112238 54 225 1.0 3.0 0.12 0.13 0.13 86 1013.7
20260505111507 55 225 1.0 4.0 0.12 0.13 0.13 86 1013.7
20260505111007 55 225 2.0 4.0 0.11 0.12 0.12 86 1013.8
20260505110505 54 225 2.0 4.0 0.10 0.11 0.11 86 1013.7
20260505101951 55 225 2.0 5.0 0.01 0.01 0.01 86 1013.7
20260505101449 55 225 2.0 5.0 0.01 0.01 0.01 85 1013.7
20260505100948 55 225 2.0 6.0 0.01 0.01 0.01 85 1013.8
20260505100448 55 225 2.0 6.0 0.01 0.01 0.01 85 1013.8
20260505095944 55 225 1.0 4.0 0.01 0.01 0.01 85 1013.9
20260505095445 56 225 1.0 4.0 0.00 0.00 0.00 85 1013.8
20260505094941 56 225 2.0 5.0 0.00 0.00 0.00 84 1013.8
20260505094441 56 225 3.0 8.0 0.00 0.00 0.00 84 1013.9
20260505093941 56 225 3.0 8.0 0.00 0.00 0.00 84 1013.9
20260505093436 56 225 2.0 5.0 0.00 0.00 0.00 84 1013.9
20260505092938 56 225 1.0 5.0 0.00 0.00 0.00 84 1013.9
20260505092435 56 225 0.0 0.0 0.00 0.00 0.00 85 1014.0
20260505091936 55 225 0.0 0.0 0.00 0.00 0.00 84 1014.0
20260505091706 55 225 0.0 0.0 0.00 0.00 0.00 85 1014.1
20260505090936 55 225 0.0 0.0 0.00 0.00 0.00 85 1014.1
20260505090435 55 225 0.0 0.0 0.00 0.00 0.00 85 1014.2
20260505085936 55 225 0.0 0.0 0.00 0.00 0.00 85 1014.2
20260505085434 56 225 0.0 0.0 0.00 0.00 0.00 85 1014.3
20260505084935 56 225 0.0 0.0 0.00 0.00 0.00 85 1014.4
20260505084433 56 225 0.0 0.0 0.00 0.00 0.00 85 1014.3
20260505083930 56 225 0.0 2.0 0.00 0.00 0.00 85 1014.4
20260505083431 56 225 1.0 3.0 0.00 0.00 0.00 85 1014.4
20260505082926 56 225 1.0 3.0 0.00 0.00 0.00 85 1014.4
20260505082424 56 225 1.0 3.0 0.00 0.00 0.00 85 1014.5
20260505081422 56 225 1.0 3.0 0.00 0.00 0.00 84 1014.6
20260505080921 56 225 1.0 3.0 0.00 0.00 0.00 84 1014.6
20260505080419 56 225 1.0 3.0 0.00 0.00 0.00 84 1014.7
20260505075919 55 225 1.0 3.0 0.00 0.00 0.00 84 1014.8
20260505075420 56 225 2.0 6.0 0.00 0.00 0.00 84 1014.8
20260505074919 56 225 2.0 6.0 0.00 0.00 0.00 84 1014.8
20260505074417 56 225 2.0 6.0 0.00 0.00 0.00 83 1014.8
20260505073916 56 225 1.0 3.0 0.00 0.00 0.00 83 1014.8
20260505073648 56 225 1.0 4.0 0.00 0.00 0.00 83 1014.8
20260505072917 56 225 2.0 5.0 0.00 0.00 0.00 82 1014.9
20260505072649 56 225 2.0 5.0 0.00 0.00 0.00 81 1014.9
20260505071918 56 225 2.0 5.0 0.00 0.00 0.00 80 1014.9
20260505071417 56 225 3.0 6.0 0.00 0.00 0.00 80 1015.0
20260505070910 57 225 3.0 6.0 0.00 0.00 0.00 79 1014.9
20260505070408 57 225 3.0 6.0 0.00 0.00 0.00 79 1015.0
20260505065906 58 225 3.0 6.0 0.00 0.00 0.00 78 1014.9
20260505065406 58 225 4.0 7.0 0.00 0.00 0.00 78 1014.9
20260505064906 58 225 4.0 7.0 0.00 0.00 0.00 77 1015.0
20260505064405 58 226 4.0 7.0 0.00 0.00 0.00 77 1015.0
20260505063903 58 226 4.0 7.0 0.00 0.00 0.00 77 1015.0
20260505063405 58 226 4.0 9.0 0.00 0.00 0.00 77 1015.0
20260505062904 58 226 4.0 9.0 0.00 0.00 0.00 77 1015.0
20260505062404 58 226 5.0 9.0 0.00 0.00 0.00 76 1015.0
20260505061900 58 225 5.0 9.0 0.00 0.00 0.00 76 1014.9
20260505061359 58 229 5.0 9.0 0.00 0.00 0.00 76 1015.0
20260505060900 58 227 4.0 8.0 0.00 0.00 0.00 76 1015.0
20260505060356 58 227 4.0 9.0 0.00 0.00 0.00 76 1015.1
20260505055857 58 226 4.0 9.0 0.00 0.00 0.00 77 1015.0
20260505055355 58 227 5.0 9.0 0.00 0.00 0.00 76 1015.1
20260505054855 58 228 6.0 10.0 0.00 0.00 0.00 76 1015.1
20260505054355 58 225 5.0 10.0 0.00 0.00 0.00 76 1015.1
20260505053855 58 220 5.0 9.0 0.00 0.00 0.00 76 1015.2
20260505053354 58 220 5.0 9.0 0.00 0.00 0.00 76 1015.2
20260505052855 58 219 5.0 9.0 0.00 0.00 0.00 76 1015.3
20260505052353 58 219 5.0 10.0 0.00 0.00 0.00 77 1015.3
20260505051853 58 220 6.0 10.0 0.00 0.00 0.00 76 1015.3
20260505051352 58 223 5.0 10.0 0.00 0.00 0.00 76 1015.3
20260505050855 58 217 5.0 9.0 0.00 0.00 0.00 77 1015.4
20260505050352 58 216 6.0 11.0 0.00 0.00 0.00 76 1015.4
20260505050123 58 223 6.0 11.0 0.00 0.00 0.00 76 1015.3
20260505041119 59 221 7.0 12.0 0.00 0.00 0.00 74 1015.1
20260505040348 59 211 6.0 12.0 0.00 0.00 0.00 73 1015.2
20260505035847 59 224 5.0 11.0 0.00 0.00 0.00 72 1015.1
20260505035619 59 220 5.0 11.0 0.00 0.00 0.00 72 1015.0
20260505034849 59 225 6.0 13.0 0.00 0.00 0.00 71 1015.0
20260505034348 59 224 7.0 13.0 0.00 0.00 0.00 70 1014.9
20260505034116 60 228 6.0 13.0 0.00 0.00 0.00 69 1014.9
20260505033346 60 219 6.0 11.0 0.00 0.00 0.00 69 1014.9
20260505032841 60 223 7.0 13.0 0.00 0.00 0.00 69 1014.9
20260505032341 60 223 8.0 13.0 0.00 0.00 0.00 68 1014.8
20260505031841 60 224 7.0 13.0 0.00 0.00 0.00 67 1014.7
20260505031107 60 224 6.0 13.0 0.00 0.00 0.00 66 1014.8
20260505030337 60 223 7.0 12.0 0.00 0.00 0.00 66 1014.7
20260505025839 60 213 8.0 13.0 0.00 0.00 0.00 65 1014.7
20260505025337 60 213 8.0 13.0 0.00 0.00 0.00 64 1014.7
20260505025109 60 217 8.0 13.0 0.00 0.00 0.00 64 1014.7
20260505024609 60 221 8.0 13.0 0.00 0.00 0.00 64 1014.6
20260505023838 61 223 8.0 13.0 0.00 0.00 0.00 64 1014.7
20260505023338 61 207 8.0 16.0 0.00 0.00 0.00 64 1014.6
20260505022837 61 220 8.0 16.0 0.00 0.00 0.00 63 1014.6
20260505022609 61 229 8.0 16.0 0.00 0.00 0.00 63 1014.5
20260505021837 61 223 8.0 16.0 0.00 0.00 0.00 62 1014.5
20260505021337 62 204 8.0 15.0 0.00 0.00 0.00 62 1014.5
20260505020836 62 229 8.0 15.0 0.00 0.00 0.00 62 1014.5
20260505020331 62 227 7.0 13.0 0.00 0.00 0.00 61 1014.5
20260505015831 62 214 8.0 13.0 0.00 0.00 0.00 61 1014.4
20260505015332 62 207 8.0 13.0 0.00 0.00 0.00 61 1014.4
20260505015101 62 223 8.0 12.0 0.00 0.00 0.00 60 1014.4
20260505014329 62 202 8.0 12.0 0.00 0.00 0.00 60 1014.4
20260505013830 63 207 9.0 16.0 0.00 0.00 0.00 59 1014.4
20260505013325 63 223 9.0 16.0 0.00 0.00 0.00 57 1014.5
20260505012824 63 220 9.0 17.0 0.00 0.00 0.00 57 1014.5
20260505012324 63 217 9.0 17.0 0.00 0.00 0.00 55 1014.5
20260505012055 64 234 9.0 14.0 0.00 0.00 0.00 56 1014.5
20260505011051 63 223 9.0 16.0 0.00 0.00 0.00 56 1014.5
20260505010320 63 218 9.0 16.0 0.00 0.00 0.00 56 1014.6
20260505005817 63 184 10.0 15.0 0.00 0.00 0.00 56 1014.6
20260505005317 63 222 9.0 16.0 0.00 0.00 0.00 56 1014.5
20260505004817 63 211 9.0 17.0 0.00 0.00 0.00 56 1014.7
20260505004317 64 214 9.0 17.0 0.00 0.00 0.00 55 1014.6
20260505003818 64 210 8.0 15.0 0.00 0.00 0.00 56 1014.7
20260505003550 64 205 8.0 15.0 0.00 0.00 0.00 56 1014.6
20260505002818 64 215 8.0 15.0 0.00 0.00 0.00 56 1014.6
20260505002317 64 212 7.0 13.0 0.00 0.00 0.00 56 1014.7
20260505001817 65 193 8.0 15.0 0.00 0.00 0.00 56 1014.7
20260505001317 64 220 9.0 17.0 0.00 0.00 0.00 56 1014.7
20260505000817 64 231 9.0 20.0 0.00 0.00 0.00 55 1014.6
20260505000318 64 218 9.0 20.0 0.00 0.00 0.00 55 1014.6
20260504235818 65 234 9.0 19.0 0.00 0.00 0.00 55 1014.6
20260504235316 65 204 8.0 15.0 0.00 0.00 0.00 54 1014.5
20260504234815 66 203 8.0 15.0 0.00 0.00 0.00 53 1014.5
20260504234316 66 208 8.0 14.0 0.00 0.00 0.00 53 1014.4
20260504233809 66 205 9.0 17.0 0.00 0.00 0.00 54 1014.3
20260504233310 66 212 9.0 17.0 0.00 0.00 0.00 53 1014.2
20260504232810 66 232 9.0 18.0 0.00 0.00 0.00 53 1014.2
20260504232310 66 228 9.0 18.0 0.00 0.00 0.00 53 1014.3
20260504231807 66 224 10.0 24.0 0.00 0.00 0.00 52 1014.3
20260504231307 67 221 10.0 24.0 0.00 0.00 0.00 53 1014.1
20260504230533 67 218 8.0 15.0 0.00 0.00 0.00 53 1014.2
20260504225759 67 223 8.0 14.0 0.00 0.00 0.00 54 1014.2
20260504225531 67 221 8.0 16.0 0.00 0.00 0.00 54 1014.3
20260504224800 67 229 9.0 18.0 0.00 0.00 0.00 54 1014.3
20260504224532 66 209 9.0 18.0 0.00 0.00 0.00 54 1014.4
20260504223800 66 207 7.0 15.0 0.00 0.00 0.00 53 1014.4
20260504223300 67 235 6.0 11.0 0.00 0.00 0.00 52 1014.4
20260504222759 66 229 7.0 11.0 0.00 0.00 0.00 52 1014.5
20260504222300 67 211 7.0 11.0 0.00 0.00 0.00 50 1014.6
20260504222028 67 215 7.0 13.0 0.00 0.00 0.00 49 1014.6
20260504221256 67 235 7.0 13.0 0.00 0.00 0.00 50 1014.6
20260504220756 67 219 7.0 11.0 0.00 0.00 0.00 49 1014.7
20260504220253 67 221 6.0 11.0 0.00 0.00 0.00 49 1014.7
20260504215754 67 217 5.0 11.0 0.00 0.00 0.00 50 1014.8
20260504215254 67 209 6.0 12.0 0.00 0.00 0.00 49 1014.8
20260504214747 67 222 6.0 12.0 0.00 0.00 0.00 49 1014.9
20260504214248 67 252 6.0 12.0 0.00 0.00 0.00 49 1014.9
20260504213747 68 221 8.0 15.0 0.00 0.00 0.00 48 1015.1
20260504213248 68 238 7.0 15.0 0.00 0.00 0.00 49 1015.1
20260504212748 67 216 6.0 15.0 0.00 0.00 0.00 50 1015.2
20260504212241 67 239 6.0 15.0 0.00 0.00 0.00 50 1015.3
20260504211743 67 210 5.0 11.0 0.00 0.00 0.00 51 1015.3
20260504211241 67 215 5.0 11.0 0.00 0.00 0.00 51 1015.3
20260504210742 67 210 6.0 15.0 0.00 0.00 0.00 51 1015.3
20260504210242 67 193 7.0 15.0 0.00 0.00 0.00 50 1015.3
20260504205738 67 190 6.0 14.0 0.00 0.00 0.00 49 1015.2
20260504205237 68 194 6.0 13.0 0.00 0.00 0.00 48 1015.3
20260504204737 68 229 7.0 13.0 0.00 0.00 0.00 48 1015.5
20260504204237 68 209 7.0 12.0 0.00 0.00 0.00 50 1015.4
20260504203737 67 205 7.0 12.0 0.00 0.00 0.00 49 1015.5
20260504203238 67 215 7.0 14.0 0.00 0.00 0.00 52 1015.5
20260504202735 66 179 8.0 14.0 0.00 0.00 0.00 51 1015.7
20260504202507 66 223 8.0 14.0 0.00 0.00 0.00 51 1015.8
20260504201736 66 211 8.0 14.0 0.00 0.00 0.00 50 1015.8
20260504201234 66 180 7.0 16.0 0.00 0.00 0.00 50 1015.7
20260504200731 66 200 8.0 16.0 0.00 0.00 0.00 49 1015.6
20260504200232 66 205 8.0 15.0 0.00 0.00 0.00 48 1015.8
20260504195728 66 243 8.0 14.0 0.00 0.00 0.00 47 1015.8
20260504195459 67 232 7.0 14.0 0.00 0.00 0.00 46 1015.8
20260504194727 67 168 6.0 13.0 0.00 0.00 0.00 46 1015.8